Starlink 34315

operational
NORAD ID: 64266 Int'l Des: 2025-120 Owner: SPXS Country: US Constellation: starlink
LEOCIRCULAR

Starlink 34315について

説明を読み込み中...

リアルタイム位置

3D地球を読み込み中...

次回通過

高度履歴

Altitude vs Time

uPlot chart will show altitude changes over time

軌道要素

1 64266U 25120L 25306.39242166 .00016655 00000-0 57294-3 0 9996
2 64266 53.1589 348.1714 0001310 90.0536 270.0614 15.30213136 24363
Epoch: Nov 2, 2025 • Age: 45 hours

現在のステータス

高度 493.0 km
速度 7.62 km/s
衛星直下点 -49.88°S, 81.76°E
打ち上げ日 Jun 4, 2025
運用期間 0.4 years
タイプ internet

技術仕様

分類 Payload
質量 575.00 kg
乾燥質量 530.00 kg
総質量 575.00 kg
長さ 0.30 m
直径 4.10 m
スパン 29.00 m
形状 Box + pan
製造者 SPXS
バスタイプ Starlink V2MO
フェーズステータス In Orbit
所有者/国 SPXS/US

大規模コンステレーション

Loading constellations...